Tracking 18980 objects as of 22-Feb-2018
HD Live streaming from Space Station
objects crossing your sky now

FENGYUN 1C DEB

Track FENGYUN 1C DEB now!
10-day predictions


NORAD ID: 29896
Int'l Code: 1999-025GS
Perigee: 852.1 km
Apogee: 1,213.4 km
Inclination: 99.5 °
Period: 105.7 minutes
Semi major axis: 7403 km
RCS: 0.0374 m2 (small)
Launch date: May 10, 1999
Source: People's Republic of China (PRC)
Launch site: Taiyaun Space Center, China (TSC)

Note: This is SATELLITE DEBRIS
aabbcc
Your satellite tracking list
Your tracking list is empty




NASA's NSSDC Master Catalog

Two Line Element Set (TLE):
1 29896U 99025GS  18051.78083531 +.00000003 +00000-0 +49861-4 0  9994
2 29896 099.5424 330.6933 0244002 202.2411 226.5448 13.62768210551851
Source of the keplerian elements: AFSPC